Duluth, MN

8:20 PM CDT on August 23, 2017 (GMT -0500)
Duluth International

Weather History for KDLH - January, 2014

Change the Weather History Date:

Monday, January 6, 2014

  Actual Average Record
Temperature  
Mean Temperature -21 °F 10 °F  
Max Temperature -15 °F 19 °F 45 °F (2012)
Min Temperature -28 °F 2 °F -34 °F (1909)
Degree Days  
Heating Degree Days 86 55  
Month to date heating degree days 442 327  
Since 1 July heating degree days 4265 4096  
Cooling Degree Days 0 0  
Month to date cooling degree days 0 0  
Year to date cooling degree days 0 0  
Moisture  
Dew Point -32 °F    
Average Humidity 63    
Maximum Humidity 70    
Minimum Humidity 55    
Precipitation  
Precipitation T in 0.04 in 1.12 in (1967)
Month to date precipitation 0.23 0.22  
Year to date precipitation 0.23 0.22  
Snow  
Snow T in 0.60 in 16.30 in (1994)
Month to date snowfall 1.3 4.0  
Since 1 July snowfall 46.2 37.8  
Snow Depth 18.00 in    
Sea Level Pressure  
Sea Level Pressure 30.15 in    
Wind  
Wind Speed 15 mph (WNW)    
Max Wind Speed 21 mph    
Max Gust Speed 26 mph    
Visibility 8 miles    
Events Snow    
T = Trace of Precipitation, MM = Missing Value Source: NWS Daily Summary

Daily Weather History Graph

Daily Weather History Graph

Search for Another Location

Airport or City:

Trip Planner

Search our weather history database for the weather conditions in past years. The results will help you decide how hot, cold, wet, or windy it might be!

Date:

Astronomy

Jan. 06, 2014 Rise Set
Actual Time 7:53 AM CST 4:36 PM CST
Civil Twilight 7:18 AM CST 5:11 PM CST
Nautical Twilight 6:40 AM CST 5:49 PM CST
Astronomical Twilight 6:03 AM CST 6:26 PM CST
Moon 10:44 AM CST (1/6) 11:36 PM CST (1/6)
Length of Visible Light 9h 52m
Length of Day
8h 42m
Waxing Crescent, 35% of the Moon is Illuminated
Jan 6
Waxing Crescent
Jan 7
First Quarter
Jan 15
Full
Jan 23
Last Quarter
Jan 30
New

Hourly Weather History & Observations

Time (CST) Temp. Windchill Dew Point Humidity Pressure Visibility Wind Dir Wind Speed Gust Speed Precip Events Conditions
12:46 AM -27.4 °F -52.5 °F -34.6 °F 69% 30.08 in 5.0 mi WNW 12.7 mph - 0.00 in Snow Light Snow
12:55 AM -27.0 °F -52.1 °F -35.0 °F 66% 30.25 in 6.0 mi WNW 12.7 mph - 0.00 in Snow Light Snow
1:26 AM -25.6 °F -51.2 °F -34.6 °F 63% 30.07 in 2.5 mi WNW 13.8 mph - 0.00 in Snow Light Snow
1:55 AM -25.1 °F -50.5 °F -34.1 °F 63% 30.24 in 2.5 mi NW 13.8 mph 24.2 mph 0.00 in Snow Light Snow
2:55 AM -25.1 °F -51.5 °F -34.1 °F 63% 30.24 in 2.5 mi NW 15.0 mph 21.9 mph 0.00 in Snow Light Snow
3:02 AM -25.6 °F -53.0 °F -34.6 °F 63% 30.07 in 3.0 mi NW 16.1 mph 24.2 mph 0.00 in Snow Light Snow
3:27 AM -25.6 °F -53.0 °F -34.6 °F 63% 30.06 in 3.0 mi NW 16.1 mph 23.0 mph 0.00 in Snow Light Snow
3:46 AM -27.4 °F -53.5 °F -34.6 °F 69% 30.06 in 4.0 mi NW 13.8 mph - 0.00 in Snow Light Snow
3:55 AM -27.0 °F -54.9 °F -36.0 °F 62% 30.24 in 6.0 mi NW 16.1 mph - 0.00 in Snow Light Snow
4:19 AM -27.4 °F -56.1 °F -36.4 °F 62% 30.06 in 5.0 mi NW 17.3 mph 23.0 mph 0.00 in Snow Light Snow
4:55 AM -27.9 °F -56.0 °F -36.0 °F 65% 30.23 in 8.0 mi NW 16.1 mph - 0.00 in Snow Light Snow
5:55 AM -27.0 °F -54.0 °F -36.0 °F 62% 30.23 in 10.0 mi NW 15.0 mph 21.9 mph 0.00 in   Overcast
6:32 AM -27.4 °F -52.5 °F -36.4 °F 62% 30.04 in 2.5 mi NW 12.7 mph - 0.00 in Snow Light Snow
6:41 AM -27.4 °F -54.5 °F -36.4 °F 62% 30.04 in 4.0 mi NW 15.0 mph 21.9 mph 0.00 in Snow Light Snow
6:55 AM -27.0 °F -54.9 °F -36.0 °F 62% 30.22 in 3.0 mi NW 16.1 mph - 0.00 in Snow Light Snow
7:55 AM -27.0 °F -54.9 °F -35.0 °F 66% 30.22 in 7.0 mi NW 16.1 mph - 0.00 in   Scattered Clouds
8:55 AM -26.0 °F -52.6 °F -34.1 °F 66% 30.22 in 7.0 mi NW 15.0 mph - N/A   Scattered Clouds
9:55 AM -25.1 °F -51.5 °F -34.1 °F 63% 30.22 in 7.0 mi NW 15.0 mph 25.3 mph N/A   Scattered Clouds
10:55 AM -22.0 °F -50.6 °F -32.1 °F 60% 30.20 in 10.0 mi NW 19.6 mph 25.3 mph N/A   Scattered Clouds
11:55 AM -20.0 °F -44.1 °F -29.9 °F 60% 30.18 in 10.0 mi WNW 13.8 mph - N/A   Clear
12:55 PM -18.0 °F -43.3 °F -29.0 °F 57% 30.16 in 10.0 mi WNW 16.1 mph - N/A   Clear
1:55 PM -16.1 °F -40.7 °F -27.9 °F 55% 30.15 in 10.0 mi WNW 16.1 mph 26.5 mph N/A   Scattered Clouds
2:55 PM -16.1 °F -42.8 °F -27.9 °F 55% 30.16 in 10.0 mi West 19.6 mph 25.3 mph N/A   Scattered Clouds
3:55 PM -16.1 °F -39.9 °F -27.9 °F 55% 30.16 in 10.0 mi West 15.0 mph 23.0 mph N/A   Partly Cloudy
4:55 PM -17.0 °F -40.2 °F -27.9 °F 58% 30.16 in 10.0 mi West 13.8 mph - N/A   Partly Cloudy
5:55 PM -17.0 °F -40.2 °F -27.9 °F 58% 30.14 in 10.0 mi West 13.8 mph - N/A   Partly Cloudy
6:44 PM -18.4 °F -42.9 °F -27.4 °F 63% 29.96 in 10.0 mi WNW 15.0 mph 24.2 mph N/A   Mostly Cloudy
6:55 PM -18.0 °F -43.3 °F -27.9 °F 61% 30.15 in 9.0 mi WNW 16.1 mph 24.2 mph N/A   Scattered Clouds
7:55 PM -18.9 °F -42.8 °F -27.9 °F 63% 30.14 in 10.0 mi WNW 13.8 mph 21.9 mph 0.00 in   Partly Cloudy
8:55 PM -20.9 °F -45.3 °F -29.0 °F 66% 30.15 in 10.0 mi WNW 13.8 mph - N/A   Partly Cloudy
9:55 PM -20.9 °F -45.3 °F -29.0 °F 66% 30.15 in 10.0 mi WNW 13.8 mph - N/A   Clear
10:55 PM -22.0 °F -46.6 °F -29.9 °F 67% 30.12 in 10.0 mi WNW 13.8 mph - N/A   Clear
11:55 PM -23.1 °F -48.0 °F -31.0 °F 67% 30.10 in 10.0 mi WNW 13.8 mph - N/A   Clear